STARLINK-4689, 53590

Orbit data source: Space-Track

STARLINK-4689, 53590 is a payload satellite owned by SpaceX/Seattle (US) in LEO that was launched on Sun, 28 Aug 2022 UTC via an FALCON 9 launch vehicle from the Air Force Eastern Test Range (AFETR). Payload-class satellites include a variety of spacecraft equipped with specific instruments for various scientific and technological missions. These include communications satellites like Starlink; space stations such as the ISS; scientific satellites like the Hubble; Earth observation satellites from companies like Planet Labs, Umbra, and HawkEye 360; GPS; miniature CubeSats for education and research; and military/defense satellites.

Loading next visibility...
Identifier
53590, 2022-104C
Orbit
LEO
Country
Flag of USUS
Related business
Manufacturer
SpaceX/Seattle
Mission
Operational Commercial Communications
Bus & Motor
STARLINK, Unknown motor
Mass
300 kg wet, ~290 kg dry
Launch date (UTC)
2022-08-28 (3 years ago)
Launch vehicle
FALCON 9
Launch site
Air Force Eastern Test Range (AFETR)
Object type
Payload
Rocket body
Debris
Shape & HBR
Box + 1 Pan, 10.1 m
Radar Cross Section
13.562 m², Large (>1 m²)

Expand to show TLE details & history
Last TLE update: 22 hours ago

TLE from 22 hours ago
0 STARLINK-4689
1 53590U 22104C   26036.37621608  .00000163  00000-0  28337-4 0  9998
2 53590  53.2192  29.3918 0001516  83.2046 276.9119 15.08842324191085
Epoch: 2026-02-05T09:01Z
TLE epoch observation values (Epoch: 2026-02-05T09:01:45.069Z)
Latitude
0.00001°
Longitude
118.42469°
Altitude
540.508 km
Speed
7.593 km/s
True Right ascension
01h 57m 34s
True Declination
0° 00' 00"
Sunlit
Object was in daylight at epoch
Visualization orbit readout
Latitude
Unknown
Longitude
Unknown
Altitude
Unknown
Speed
Unknown
Apparent Right ascension
Unknown
Apparent Declination
Unknown
Sunlit
N/A
Visualization observer readout
Local Sidereal Time
09:06:45
Azimuth
Unknown
Elevation
Unknown
Doppler factor
Unknown
Orbital elements
Apogee altitude
541.03 km
Perigee altitude
538.932 km
Semi-major axis
6,918.118 km
Eccentricity
0.00015
Inclination
53.2192°
RAAN
29.3918°
Arg. of periapsis
83.2046°
True anomaly
276.89465°
Mean anomaly
276.9119°
Eccentric anomaly
276.90328°
Mean motion
3.77191 °/min
Orbital period
95.44 mins
BSTAR
0.000028337
Loading maneuver chart data...
Computing Atmospheric mass density...
Loading historical data...
Loading historical data...
Loading historical data...
Loading historical data...
Loading historical data...
Loading historical data...
Loading historical data...

Documentation

Showing up to 5 results
|